Weather History for KHOB - April, 2013

Change the Weather History Date:

Thursday, April 18, 2013

  Actual Average Record
Temperature  
Mean Temperature 45 °F -  
Max Temperature 57 °F 75 °F 91 °F (2006)
Min Temperature 33 °F 46 °F 32 °F (1953)
Degree Days  
Heating Degree Days 20    
Moisture  
Dew Point 20 °F    
Average Humidity 43    
Maximum Humidity 70    
Minimum Humidity 15    
Precipitation  
Precipitation 0.00 in - - ()
Sea Level Pressure  
Sea Level Pressure 30.05 in    
Wind  
Wind Speed 18 mph (North)    
Max Wind Speed 25 mph    
Max Gust Speed 32 mph    
Visibility 10 miles    
Events      
Averages and records for this station are not official NWS values.
T = Trace of Precipitation, MM = Missing Value Source: NWS Daily Summary

Daily Weather History Graph

Daily Weather History Graph

Search for Another Location

Airport or City:

Trip Planner

Search our weather history database for the weather conditions in past years. The results will help you decide how hot, cold, wet, or windy it might be!

Date:

Astronomy

Apr. 18, 2013 Rise Set
Actual Time 6:19 AM MDT 7:25 PM MDT
Civil Twilight 5:54 AM MDT 7:50 PM MDT
Nautical Twilight 5:23 AM MDT 8:21 PM MDT
Astronomical Twilight 4:52 AM MDT 8:52 PM MDT
Moon 12:36 PM MDT (4/18) 1:37 AM MDT (4/18)
Length of Visible Light 13h 56m
Length of Day
13h 05m
First Quarter, 52% of the Moon is Illuminated
Apr 18
First Quarter
Apr 25
Full
May 2
Last Quarter
May 9
New
May 17
First Quarter

Hourly Weather History & Observations

Time (MDT) Temp. Windchill Dew Point Humidity Pressure Visibility Wind Dir Wind Speed Gust Speed Precip Events Conditions
12:15 AM 48.2 °F - 33.8 °F 58% 29.88 in 10.0 mi North 23.0 mph 29.9 mph N/A   Clear
12:35 AM 44.6 °F 35.7 °F 33.8 °F 66% 29.90 in 10.0 mi NNW 24.2 mph 31.1 mph N/A   Clear
12:55 AM 44.6 °F 36.4 °F 32.0 °F 61% 29.92 in 10.0 mi North 20.7 mph 29.9 mph N/A   Clear
1:15 AM 42.8 °F 33.1 °F 32.0 °F 66% 29.91 in 10.0 mi NNW 25.3 mph 29.9 mph N/A   Clear
1:35 AM 41.0 °F 31.1 °F 32.0 °F 70% 29.92 in 10.0 mi North 23.0 mph - N/A   Clear
1:55 AM 41.0 °F 31.4 °F 32.0 °F 70% 29.92 in 10.0 mi North 21.9 mph 32.2 mph N/A   Clear
2:15 AM 39.2 °F 28.3 °F 30.2 °F 70% 29.92 in 10.0 mi NNW 25.3 mph 32.2 mph N/A   Clear
2:35 AM 39.2 °F 29.8 °F 28.4 °F 65% 29.93 in 10.0 mi North 18.4 mph - N/A   Clear
2:55 AM 37.4 °F 27.2 °F 28.4 °F 70% 29.95 in 10.0 mi North 19.6 mph 31.1 mph N/A   Clear
3:15 AM 37.4 °F 28.2 °F 28.4 °F 70% 29.96 in 10.0 mi North 16.1 mph - N/A   Clear
3:35 AM 37.4 °F 28.5 °F 28.4 °F 70% 29.97 in 10.0 mi North 15.0 mph - N/A   Partly Cloudy
3:55 AM 37.4 °F 28.5 °F 28.4 °F 70% 29.98 in 10.0 mi North 15.0 mph 23.0 mph N/A   Partly Cloudy
4:15 AM 37.4 °F 27.8 °F 28.4 °F 70% 29.99 in 10.0 mi NNW 17.3 mph 20.7 mph N/A   Clear
4:35 AM 37.4 °F 27.8 °F 24.8 °F 60% 30.00 in 10.0 mi North 17.3 mph - N/A   Clear
4:55 AM 35.6 °F 24.5 °F 24.8 °F 65% 29.99 in 10.0 mi NNW 20.7 mph - N/A   Clear
5:50 AM 35.6 °F 24.5 °F 24.8 °F 65% 30.01 in 10.0 mi North 20.7 mph 27.6 mph N/A   Clear
6:50 AM 33.8 °F 22.8 °F 23.0 °F 65% 30.06 in 10.0 mi North 18.4 mph 28.8 mph N/A   Clear
7:50 AM 35.6 °F 24.0 °F 21.2 °F 56% 30.07 in 10.0 mi North 23.0 mph - N/A   Clear
8:50 AM 39.2 °F 29.3 °F 19.4 °F 45% 30.09 in 10.0 mi North 20.7 mph 26.5 mph N/A   Clear
10:50 AM 44.6 °F 38.1 °F 17.6 °F 34% 30.11 in 10.0 mi North 13.8 mph 21.9 mph N/A   Clear
11:50 AM 48.2 °F - 17.6 °F 30% 30.10 in 10.0 mi North 15.0 mph 19.6 mph N/A   Clear
12:50 PM 50.0 °F - 17.6 °F 28% 30.08 in 10.0 mi North 9.2 mph 18.4 mph N/A   Clear
1:50 PM 51.8 °F - 15.8 °F 24% 30.06 in 10.0 mi North 11.5 mph - N/A   Clear
2:50 PM 55.4 °F - 15.8 °F 21% 30.05 in 10.0 mi NNW 11.5 mph 19.6 mph N/A   Partly Cloudy
3:50 PM 55.4 °F - 14.0 °F 20% 30.04 in 10.0 mi NNW 9.2 mph - N/A   Partly Cloudy
4:50 PM 57.2 °F - 10.4 °F 16% 30.04 in 10.0 mi North 13.8 mph 19.6 mph N/A   Partly Cloudy
5:50 PM 57.2 °F - 10.4 °F 16% 30.05 in 10.0 mi NNE 9.2 mph - N/A   Partly Cloudy
6:15 PM 55.4 °F - 10.4 °F 17% 30.05 in 10.0 mi NNE 8.1 mph - N/A   Clear
6:35 PM 55.4 °F - 8.6 °F 15% 30.06 in 10.0 mi NE 6.9 mph - N/A   Clear
6:55 PM 53.6 °F - 8.6 °F 16% 30.06 in 10.0 mi NE 5.8 mph - N/A   Clear
7:15 PM 51.8 °F - 8.6 °F 18% 30.07 in 10.0 mi Calm Calm - N/A   Clear
7:35 PM 50.0 °F - 8.6 °F 19% 30.08 in 10.0 mi ENE 10.4 mph - N/A   Clear
8:55 PM 48.2 °F - 8.6 °F 20% 30.14 in 10.0 mi NE 11.5 mph - N/A   Clear
9:35 PM 46.4 °F 40.4 °F 10.4 °F 23% 30.17 in 10.0 mi NE 13.8 mph 19.6 mph N/A   Clear
9:55 PM 46.4 °F 40.1 °F 10.4 °F 23% 30.18 in 10.0 mi NE 15.0 mph 18.4 mph N/A   Clear
10:15 PM 44.6 °F 38.1 °F 12.2 °F 27% 30.19 in 10.0 mi NE 13.8 mph 17.3 mph N/A   Clear
10:35 PM 44.6 °F 38.4 °F 12.2 °F 27% 30.19 in 10.0 mi NE 12.7 mph 18.4 mph N/A   Clear
10:55 PM 42.8 °F 38.0 °F 12.2 °F 29% 30.19 in 10.0 mi NE 8.1 mph - N/A   Clear
11:15 PM 41.0 °F 35.8 °F 14.0 °F 33% 30.20 in 10.0 mi NE 8.1 mph - N/A   Clear
11:35 PM 41.0 °F 39.0 °F 14.0 °F 33% 30.21 in 10.0 mi NE 3.5 mph - N/A   Clear
11:55 PM 39.2 °F - 14.0 °F 36% 30.22 in 10.0 mi Calm Calm - N/A   Clear